Location: Gugi
(45.4667°N, 11.1000°E)
Time: 07:31:16
(UTC+00:00)

Cosmos 2263 Rocket - Pass Details

Date: 17 November 2019
Orbit: 825 x 847 km, 71.0° (Epoch: 13 December)

Event Time Altitude Azimuth Distance (km) Brightness Sun altitude
Rises 16:44:43 0° 342° (NNW) 3,375 5.4 -10.8°
Reaches altitude 10° 16:48:00 10° 1° (N) 2,437 4.4 -11.3°
Maximum altitude 16:51:43 18° 44° (NE) 1,935 3.6 -11.9°
Enters shadow 16:53:19 16° 64° (ENE) 2,034 3.6 -12.2°
